Home > Time Zones > World Clock > Weather > Belgium > Spa > Past weeks

Flag for Belgium Weather past 2 weeks in Spa, Belgium

Now
51 °F

Low clouds.


Feels Like: 51 °F
Forecast: 44 / 62 °F
Wind: 3 mph from West

Location: Spa / La Sauveniere

Current Time: Aug 23, 2014 at 4:37:29 AM

Latest Report: Aug 23, 2014 at 3:00 AM


Visibility: 6 mi

Pressure: 29.95 "Hg

Humidity: 96%

Dew point: 50 °F

Location of SpaLocation

Historic Weather in Spa — Graph

°F

Spa temperature yesterday

Maximum temperature yesterday: 61 °F (at 4:00 PM)
Minimum temperature yesterday: 49 °F (at 7:00 AM)
Average temperature yesterday: 54 °F

Past Weeks' High & Low Weather Summary

 TemperatureHumidityPressure
High71 °F (Aug 8, 1:00 PM)100% (Aug 16, 12:00 AM)30.16 "Hg (Aug 16, 12:00 AM)
Low44 °F (Aug 20, 6:00 AM)50% (Aug 11, 4:00 PM)29.61 "Hg (Aug 10, 6:00 PM)
Average56 °F82%29.91 "Hg
* Reported Aug 8 2:00 AM — Aug 23 2:00 AM, Spa, Weather by CustomWeather, © 2014

Note: Actual official high and low records may vary slightly from our data, if they occured in-between our weather recording intervals... More about our weather records

Advertising

Spa weather history for previous 24 hours

 ConditionsComfort  
Time TempWeatherWind HumidityBarometerVisibility
2:00 AM
Aug 23
51 °FLow clouds.2 mph97%29.95 "Hg8 mi
1:00 AM52 °FLow clouds.3 mph96%29.96 "Hg13 mi
12:00 AM52 °FOvercast.3 mph94%29.96 "Hg25 mi
11:00 PM
Aug 22
52 °FOvercast.3 mph96%29.96 "Hg22 mi
10:00 PM52 °FPassing clouds.5 mph93%29.95 "Hg6 mi
9:00 PM53 °FPassing clouds.5 mph89%29.93 "Hg22 mi
8:00 PM53 °FLight rain. Sunny.3 mph91%29.94 "Hg11 mi
7:00 PM56 °FDrizzle. Overcast.3 mph71%29.91 "Hg25 mi
6:00 PM59 °FDrizzle. Overcast.3 mph58%29.90 "Hg25 mi
5:00 PM61 °FPartly sunny.6 mph52%29.89 "Hg25 mi
4:00 PM61 °FOvercast.6 mph56%29.89 "Hg19 mi
3:00 PM59 °FOvercast.5 mph62%29.90 "Hg22 mi
2:00 PM60 °FPartly sunny.9 mph54%29.91 "Hg22 mi
1:00 PM58 °FOvercast.7 mph61%29.92 "Hg28 mi
12:00 PM60 °FPartly sunny.8 mph58%29.91 "Hg17 mi
11:00 AM57 °FSunny.6 mph63%29.93 "Hg25 mi
10:00 AM55 °FSunny.5 mph67%29.93 "Hg22 mi
9:00 AM53 °FSunny.5 mph71%29.94 "Hg19 mi
8:00 AM50 °FSunny.6 mph77%29.96 "Hg25 mi
7:00 AM49 °FSunny.6 mph80%29.96 "Hg22 mi
6:00 AM50 °FOvercast.5 mph79%29.97 "Hg28 mi
5:00 AM50 °FOvercast.5 mph79%29.98 "Hg25 mi
4:00 AM50 °FOvercast.3 mph81%29.99 "Hg25 mi
Weather by CustomWeather, © 2014

See weather overviewHow to use our weather pages